• In Hungary
  • List of Countries
  • For 7 days
  • Water Temperature
  • Satellite Maps
  • Weather Map
  • News
  • Weather Widgets
  • user-avatar
    Login

    Hourly Weather Amar

    Today, 24 February, Saturday

    Time Temperature Precipitation Wind Pressure Humidity
    00:00 +23°C° 0 mm 4 mps 754 mmHg 52%
    01:00 +23°C° 0 mm 4 mps 754 mmHg 54%
    02:00 +22°C° 0 mm 4 mps 754 mmHg 55%
    03:00 +22°C° 0 mm 3 mps 754 mmHg 55%
    04:00 +22°C° 0 mm 3 mps 754 mmHg 55%
    05:00 +22°C° 0 mm 4 mps 754 mmHg 56%
    06:00 +22°C° 0 mm 5 mps 754 mmHg 56%
    07:00 +23°C° 0.1 mm 5 mps 754 mmHg 54%
    08:00 +25°C° 0.1 mm 4 mps 754 mmHg 53%
    09:00 +26°C° 0 mm 5 mps 754 mmHg 50%
    10:00 +26°C° 0.1 mm 4 mps 754 mmHg 50%
    11:00 +26°C° 0.1 mm 3 mps 754 mmHg 50%
    12:00 +26°C° 0.1 mm 2 mps 754 mmHg 50%
    13:00 +26°C° 0 mm 3 mps 754 mmHg 51%
    14:00 +26°C° 0 mm 3 mps 754 mmHg 51%
    15:00 +27°C° 0 mm 3 mps 753 mmHg 47%
    16:00 +26°C° 0.4 mm 4 mps 754 mmHg 52%
    17:00 +25°C° 0.4 mm 4 mps 754 mmHg 58%
    18:00 +23°C° 0.4 mm 5 mps 754 mmHg 63%
    19:00 +22°C° 1.7 mm 5 mps 754 mmHg 69%
    20:00 +22°C° 1.7 mm 5 mps 755 mmHg 75%
    21:00 +21°C° 1.7 mm 6 mps 755 mmHg 81%
    22:00 +21°C° 1.3 mm 5 mps 755 mmHg 80%
    23:00 +21°C° 1.3 mm 4 mps 755 mmHg 80%

    Tomorrow, 25 February, Sunday

    Time Temperature Precipitation Wind Pressure Humidity
    00:00 +21°C° 1.3 mm 3 mps 755 mmHg 79%
    01:00 +21°C° 2.6 mm 4 mps 755 mmHg 80%
    02:00 +21°C° 2.6 mm 5 mps 755 mmHg 80%
    03:00 +20°C° 2.6 mm 6 mps 755 mmHg 81%
    04:00 +20°C° 1.2 mm 5 mps 755 mmHg 80%
    05:00 +20°C° 1.2 mm 4 mps 756 mmHg 78%
    06:00 +20°C° 1.2 mm 3 mps 756 mmHg 77%
    07:00 +20°C° 0.3 mm 4 mps 756 mmHg 76%
    08:00 +20°C° 0.3 mm 4 mps 756 mmHg 76%
    09:00 +20°C° 0.3 mm 5 mps 756 mmHg 75%
    10:00 +21°C° 0.4 mm 5 mps 756 mmHg 72%
    11:00 +22°C° 0.4 mm 5 mps 756 mmHg 68%
    12:00 +23°C° 0.4 mm 5 mps 756 mmHg 65%
    13:00 +23°C° 0.2 mm 4 mps 756 mmHg 63%
    14:00 +25°C° 0.2 mm 4 mps 756 mmHg 61%
    15:00 +25°C° 0.2 mm 3 mps 756 mmHg 58%
    16:00 +25°C° 0 mm 3 mps 756 mmHg 62%
    17:00 +24°C° 0 mm 3 mps 756 mmHg 66%
    18:00 +24°C° 0 mm 3 mps 757 mmHg 70%
    19:00 +22°C° 0 mm 3 mps 757 mmHg 70%
    20:00 +22°C° 0 mm 3 mps 757 mmHg 71%
    21:00 +22°C° 0 mm 3 mps 758 mmHg 71%
    22:00 +22°C° 0 mm 3 mps 758 mmHg 72%
    23:00 +22°C° 0 mm 3 mps 758 mmHg 73%

    Day after tomorrow, 26 February, Monday

    Time Temperature Precipitation Wind Pressure Humidity
    00:00 +21°C° 0 mm 3 mps 758 mmHg 74%
    01:00 +21°C° 0 mm 2 mps 758 mmHg 76%
    02:00 +22°C° 0 mm 1 mps 758 mmHg 78%
    03:00 +21°C° 0 mm 1 mps 758 mmHg 80%
    04:00 +21°C° 0 mm 1 mps 758 mmHg 80%
    05:00 +21°C° 0 mm 1 mps 758 mmHg 79%
    06:00 +21°C° 0 mm 1 mps 758 mmHg 79%
    07:00 +22°C° 0 mm 1 mps 759 mmHg 75%
    08:00 +22°C° 0 mm 1 mps 759 mmHg 70%
    09:00 +23°C° 0 mm 1 mps 759 mmHg 66%
    10:00 +24°C° 0 mm 1 mps 759 mmHg 61%
    11:00 +24°C° 0 mm 1 mps 759 mmHg 57%
    12:00 +25°C° 0 mm 1 mps 758 mmHg 52%
    13:00 +25°C° 0 mm 2 mps 758 mmHg 50%
    14:00 +25°C° 0 mm 2 mps 757 mmHg 48%
    15:00 +26°C° 0 mm 3 mps 757 mmHg 46%
    16:00 +25°C° 0 mm 3 mps 757 mmHg 48%
    17:00 +25°C° 0 mm 3 mps 756 mmHg 50%
    18:00 +23°C° 0 mm 4 mps 756 mmHg 52%
    19:00 +23°C° 0 mm 4 mps 757 mmHg 54%
    20:00 +23°C° 0 mm 4 mps 757 mmHg 56%
    21:00 +22°C° 0 mm 4 mps 758 mmHg 58%
    22:00 +22°C° 0 mm 4 mps 757 mmHg 61%
    23:00 +22°C° 0 mm 4 mps 757 mmHg 64%

    27 February, Tuesday

    Time Temperature Precipitation Wind Pressure Humidity
    00:00 +22°C° 0 mm 4 mps 757 mmHg 67%
    01:00 +22°C° 0 mm 4 mps 757 mmHg 67%
    02:00 +22°C° 0 mm 4 mps 756 mmHg 67%
    03:00 +21°C° 0 mm 4 mps 756 mmHg 67%
    04:00 +21°C° 0 mm 4 mps 756 mmHg 67%
    05:00 +21°C° 0 mm 4 mps 756 mmHg 67%
    06:00 +21°C° 0 mm 4 mps 756 mmHg 67%
    07:00 +22°C° 0.1 mm 4 mps 757 mmHg 63%
    08:00 +23°C° 0.1 mm 4 mps 757 mmHg 58%
    09:00 +24°C° 0.1 mm 3 mps 758 mmHg 53%
    10:00 +26°C° 0.1 mm 4 mps 757 mmHg 49%
    11:00 +27°C° 0.1 mm 4 mps 757 mmHg 44%
    12:00 +28°C° 0.1 mm 4 mps 757 mmHg 40%
    13:00 +28°C° 0 mm 4 mps 756 mmHg 38%
    14:00 +29°C° 0 mm 4 mps 756 mmHg 36%
    15:00 +29°C° 0 mm 4 mps 755 mmHg 34%
    16:00 +28°C° 0.1 mm 4 mps 755 mmHg 37%
    17:00 +28°C° 0.1 mm 4 mps 755 mmHg 40%
    18:00 +27°C° 0.1 mm 4 mps 755 mmHg 43%
    19:00 +26°C° 0.1 mm 4 mps 756 mmHg 46%
    20:00 +26°C° 0.1 mm 4 mps 756 mmHg 49%
    21:00 +25°C° 0.1 mm 5 mps 756 mmHg 51%
    22:00 +25°C° 0 mm 4 mps 756 mmHg 54%
    23:00 +25°C° 0 mm 4 mps 756 mmHg 57%

    28 February, Wednesday

    Time Temperature Precipitation Wind Pressure Humidity
    00:00 +23°C° 0 mm 4 mps 755 mmHg 60%
    01:00 +23°C° 0.1 mm 4 mps 755 mmHg 61%
    02:00 +23°C° 0.1 mm 4 mps 755 mmHg 63%
    03:00 +23°C° 0.1 mm 4 mps 754 mmHg 65%
    04:00 +22°C° 0.2 mm 3 mps 755 mmHg 66%
    05:00 +23°C° 0.2 mm 2 mps 755 mmHg 68%
    06:00 +23°C° 0.2 mm 2 mps 756 mmHg 70%
    07:00 +23°C° 0.2 mm 2 mps 756 mmHg 67%
    08:00 +24°C° 0.2 mm 2 mps 757 mmHg 64%
    09:00 +24°C° 0.2 mm 2 mps 757 mmHg 61%
    10:00 +25°C° 0.3 mm 2 mps 757 mmHg 59%
    11:00 +25°C° 0.3 mm 2 mps 757 mmHg 58%
    12:00 +26°C° 0.3 mm 2 mps 756 mmHg 56%
    13:00 +26°C° 0.1 mm 2 mps 756 mmHg 54%
    14:00 +27°C° 0.1 mm 2 mps 755 mmHg 52%
    15:00 +27°C° 0.1 mm 2 mps 755 mmHg 50%
    16:00 +27°C° 0.2 mm 3 mps 755 mmHg 52%
    17:00 +26°C° 0.2 mm 3 mps 755 mmHg 53%
    18:00 +26°C° 0.2 mm 4 mps 755 mmHg 55%
    19:00 +25°C° 0.2 mm 4 mps 755 mmHg 59%
    20:00 +23°C° 0.2 mm 4 mps 756 mmHg 62%
    21:00 +23°C° 0.2 mm 5 mps 756 mmHg 66%
    22:00 +22°C° 0.1 mm 5 mps 756 mmHg 68%
    23:00 +22°C° 0.1 mm 4 mps 755 mmHg 70%

    1 March, Thursday

    Time Temperature Precipitation Wind Pressure Humidity
    00:00 +22°C° 0.1 mm 4 mps 755 mmHg 73%
    01:00 +21°C° 0.1 mm 4 mps 755 mmHg 74%
    02:00 +21°C° 0.1 mm 3 mps 756 mmHg 75%
    03:00 +21°C° 0.1 mm 3 mps 756 mmHg 76%
    04:00 +21°C° 0.1 mm 2 mps 756 mmHg 76%
    05:00 +21°C° 0.1 mm 2 mps 756 mmHg 75%
    06:00 +22°C° 0.1 mm 1 mps 757 mmHg 75%
    07:00 +21°C° 0 mm 2 mps 757 mmHg 71%
    08:00 +23°C° 0 mm 2 mps 757 mmHg 66%
    09:00 +24°C° 0 mm 3 mps 757 mmHg 62%
    10:00 +24°C° 0 mm 3 mps 757 mmHg 57%
    11:00 +25°C° 0 mm 3 mps 756 mmHg 52%
    12:00 +26°C° 0 mm 3 mps 756 mmHg 48%
    13:00 +26°C° 0 mm 4 mps 755 mmHg 47%
    14:00 +26°C° 0 mm 4 mps 755 mmHg 46%
    15:00 +26°C° 0 mm 5 mps 755 mmHg 45%
    16:00 +26°C° 0 mm 5 mps 755 mmHg 50%
    17:00 +25°C° 0 mm 5 mps 755 mmHg 55%
    18:00 +23°C° 0 mm 5 mps 756 mmHg 60%
    19:00 +23°C° 0 mm 5 mps 756 mmHg 61%
    20:00 +22°C° 0 mm 5 mps 756 mmHg 63%
    21:00 +22°C° 0 mm 5 mps 756 mmHg 65%
    22:00 +22°C° 0 mm 5 mps 756 mmHg 65%
    23:00 +22°C° 0 mm 5 mps 756 mmHg 65%
    Show more